Location: Bittelbronn
(48.4454°N, 8.5870°E)
Time: 20:42:50
(UTC+00:00)

Cosmos 1242 Rocket - Pass Details

Date: 23 May 2024
Orbit: 321 x 335 km, 81.1° (Epoch: 16 June)

Event Time Altitude Azimuth Distance (km) Brightness Sun altitude
Exits shadow 01:10:15 25° 135° (SE) 783 3.4 -16.8°
Maximum altitude 01:11:15 33° 96° (E) 650 3.4 -16.8°
Drops below altitude 10° 01:13:58 10° 30° (NNE) 1,375 6.2 -16.5°
Sets 01:16:04 0° 20° (NNE) 2,233 7.7 -16.4°
